STARLINK-34095, 63809

Orbit data source: Space-Track

STARLINK-34095, 63809 is a payload satellite owned by SpaceX/Seattle (US) in LEO that was launched on Sun, 04 May 2025 UTC via an FALCON 9 launch vehicle from the Air Force Eastern Test Range (AFETR). Payload-class satellites include a variety of spacecraft equipped with specific instruments for various scientific and technological missions. These include communications satellites like Starlink; space stations such as the ISS; scientific satellites like the Hubble; Earth observation satellites from companies like Planet Labs, Umbra, and HawkEye 360; GPS; miniature CubeSats for education and research; and military/defense satellites.

Loading next visibility...
Identifier
63809, 2025-092F
Orbit
LEO
Country
Flag of USUS
Related business
Manufacturer
SpaceX/Seattle
Mission
Operational Commercial Communications
Bus & Motor
STARLINK V2MO, Unknown motor
Mass
575 kg wet, ~530 kg dry
Launch date (UTC)
2025-05-04 (4 months ago)
Launch vehicle
FALCON 9
Launch site
Air Force Eastern Test Range (AFETR)
Object type
Payload
Rocket body
Debris
Shape & HBR
Box + 1 Pan, 14.5 m
Radar Cross Section
41.120 m², Large (>1 m²)

Expand to show TLE details & history
Last TLE update: 19 hours ago

TLE from 19 hours ago
0 STARLINK-34095
1 63809U 25092F   25259.78586852  .00036826  00000-0  13412-2 0  9994
2 63809  43.0017  75.0657 0001217 280.8204  79.2510 15.27577056 22012
Epoch: 2025-09-16T18:51Z
TLE epoch observation values (Epoch: 2025-09-16T18:51:39.04Z)
Latitude
-0.00005°
Longitude
156.1818°
Altitude
482.678 km
Speed
7.626 km/s
True Right ascension
05h 00m 15s
True Declination
0° 00' 00"
Sunlit
Object was in daylight at epoch
Visualization orbit readout
Latitude
Unknown
Longitude
Unknown
Altitude
Unknown
Speed
Unknown
Apparent Right ascension
Unknown
Apparent Declination
Unknown
Sunlit
N/A
Visualization observer readout
Local Sidereal Time
06:46:53
Azimuth
Unknown
Elevation
Unknown
Doppler factor
Unknown
Orbital elements
Apogee altitude
485.838 km
Perigee altitude
484.168 km
Semi-major axis
6,863.14 km
Eccentricity
0.00012
Inclination
43.0017°
RAAN
75.0657°
Arg. of periapsis
280.8204°
True anomaly
79.2647°
Mean anomaly
79.251°
Eccentric anomaly
79.25785°
Mean motion
3.81732 °/min
Orbital period
94.31 mins
BSTAR
0.0013412
Loading maneuver chart data...
Computing Atmospheric mass density...
Loading historical data...
Loading historical data...
Loading historical data...
Loading historical data...
Loading historical data...
Loading historical data...
Loading historical data...

Documentation

Showing up to 5 results
|